�������l�o���
Date,Time,MP-1(��Sv/h),MP-2(��Sv/h),MP-3(��Sv/h),MP-4(��Sv/h),MP-5(��Sv/h),MP-6(��Sv/h),MP-7(��Sv/h),MP-8(��Sv/h),����,����(m/s),���J
2017/01/18,00:00,1.076,1.804,1.173,2.047,1.417,0.557,1.024,0.952,���k��,3.4,��
2017/01/18,00:10,1.078,1.805,1.175,2.045,1.418,0.558,1.023,0.952,���k��,3.9,��
2017/01/18,00:20,1.076,1.805,1.173,2.047,1.418,0.559,1.023,0.950,���k��,3.7,��
2017/01/18,00:30,1.077,1.805,1.172,2.044,1.419,0.558,1.023,0.951,���k��,2.3,��
2017/01/18,00:40,1.079,1.807,1.175,2.048,1.418,0.556,1.023,0.952,���k��,2.6,��
2017/01/18,00:50,1.077,1.804,1.170,2.042,1.418,0.558,1.022,0.951,���k��,2.6,��
2017/01/18,01:00,1.077,1.806,1.172,2.042,1.418,0.557,1.024,0.952,���k��,1.7,��
2017/01/18,01:10,1.076,1.803,1.172,2.046,1.417,0.557,1.024,0.952,��,2.0,��
2017/01/18,01:20,1.077,1.805,1.174,2.041,1.419,0.556,1.023,0.952,���k��,1.9,��
2017/01/18,01:30,1.076,1.804,1.174,2.042,1.419,0.558,1.024,0.950,���k��,2.3,��
2017/01/18,01:40,1.078,1.807,1.172,2.045,1.417,0.556,1.025,0.953,���k��,2.8,��
2017/01/18,01:50,1.078,1.803,1.173,2.043,1.418,0.557,1.026,0.952,���k��,3.2,��
2017/01/18,02:00,1.076,1.805,1.172,2.047,1.415,0.557,1.023,0.950,���k��,3.5,��
2017/01/18,02:10,1.077,1.806,1.173,2.046,1.417,0.557,1.024,0.951,���k��,3.8,��
2017/01/18,02:20,1.077,1.806,1.174,2.044,1.416,0.555,1.024,0.952,���k��,4.1,��
2017/01/18,02:30,1.078,1.807,1.173,2.046,1.417,0.556,1.027,0.952,���k��,5.0,��
2017/01/18,02:40,1.078,1.803,1.175,2.046,1.418,0.558,1.026,0.951,���k��,3.5,��
2017/01/18,02:50,1.076,1.803,1.172,2.045,1.417,0.558,1.025,0.952,���k��,2.9,��
2017/01/18,03:00,1.075,1.810,1.176,2.044,1.415,0.558,1.026,0.952,�k��,3.7,��
2017/01/18,03:10,1.078,1.810,1.172,2.046,1.417,0.557,1.025,0.953,�k��,5.2,��
2017/01/18,03:20,1.077,1.806,1.173,2.044,1.417,0.557,1.026,0.953,�k��,6.3,��
2017/01/18,03:30,1.075,1.807,1.173,2.047,1.420,0.559,1.028,0.952,�k��,5.5,��
2017/01/18,03:40,1.076,1.807,1.175,2.045,1.418,0.557,1.027,0.952,�k��,5.3,��
2017/01/18,03:50,1.078,1.807,1.174,2.046,1.417,0.557,1.027,0.953,�k��,5.5,��
2017/01/18,04:00,1.078,1.807,1.171,2.046,1.415,0.556,1.025,0.952,�k��,4.1,��
2017/01/18,04:10,1.078,1.805,1.174,2.046,1.416,0.557,1.026,0.951,���k��,4.1,��
2017/01/18,04:20,1.076,1.802,1.175,2.042,1.418,0.557,1.027,0.955,���k��,2.9,��
2017/01/18,04:30,1.080,1.804,1.172,2.043,1.418,0.558,1.025,0.952,���k��,2.5,��
2017/01/18,04:40,1.075,1.805,1.171,2.044,1.418,0.557,1.025,0.951,��,3.0,��
2017/01/18,04:50,1.077,1.806,1.173,2.045,1.417,0.557,1.024,0.951,��,4.8,��
2017/01/18,05:00,1.076,1.806,1.172,2.045,1.416,0.557,1.024,0.952,���k��,4.5,��
2017/01/18,05:10,1.075,1.803,1.173,2.044,1.413,0.557,1.025,0.951,���k��,4.3,��
2017/01/18,05:20,1.077,1.803,1.171,2.044,1.418,0.558,1.024,0.952,���k��,5.1,��
2017/01/18,05:30,1.077,1.804,1.173,2.041,1.419,0.557,1.024,0.951,���k��,4.7,��
2017/01/18,05:40,1.078,1.803,1.171,2.043,1.415,0.558,1.026,0.950,���k��,5.0,��
2017/01/18,05:50,1.077,1.803,1.171,2.043,1.417,0.557,1.026,0.952,���k��,4.5,��
2017/01/18,06:00,1.075,1.806,1.172,2.045,1.415,0.556,1.025,0.951,���k��,5.3,��
2017/01/18,06:10,1.076,1.806,1.170,2.044,1.414,0.557,1.024,0.950,��,4.9,��
2017/01/18,06:20,1.077,1.805,1.171,2.044,1.414,0.556,1.024,0.952,��,4.7,��
2017/01/18,06:30,1.075,1.803,1.172,2.044,1.413,0.557,1.024,0.951,��,3.4,��
2017/01/18,06:40,1.074,1.802,1.173,2.045,1.414,0.558,1.025,0.950,���쐼,4.7,��
2017/01/18,06:50,1.076,1.803,1.175,2.044,1.417,0.557,1.022,0.950,��,4.4,��
2017/01/18,07:00,1.076,1.804,1.174,2.044,1.413,0.558,1.024,0.952,��,4.2,��
2017/01/18,07:10,1.075,1.803,1.171,2.045,1.415,0.557,1.021,0.950,���쐼,4.8,��
2017/01/18,07:20,1.075,1.803,1.173,2.041,1.414,0.556,1.024,0.951,��,5.7,��
2017/01/18,07:30,1.077,1.806,1.170,2.043,1.413,0.556,1.023,0.952,��,5.3,��
2017/01/18,07:40,1.077,1.806,1.170,2.044,1.417,0.557,1.025,0.952,��,5.3,��
2017/01/18,07:50,1.079,1.802,1.172,2.044,1.415,0.556,1.024,0.951,���k��,4.9,��
2017/01/18,08:00,1.077,1.804,1.174,2.045,1.416,0.557,1.023,0.951,��,5.1,��
2017/01/18,08:10,1.077,1.805,1.175,2.044,1.414,0.558,1.025,0.952,��,4.4,��
2017/01/18,08:20,1.077,1.803,1.174,2.049,1.418,0.557,1.025,0.952,���k��,3.4,��
2017/01/18,08:30,1.077,1.806,1.175,2.047,1.415,0.558,1.026,0.951,���k��,3.3,��
2017/01/18,08:40,1.077,1.807,1.175,2.044,1.418,0.559,1.026,0.952,���k��,3.4,��
2017/01/18,08:50,1.079,1.809,1.176,2.047,1.417,0.556,1.024,0.952,���k��,3.3,��
2017/01/18,09:00,1.078,1.808,1.178,2.047,1.417,0.557,1.026,0.951,���k��,3.0,��
2017/01/18,09:10,1.079,1.807,1.177,2.049,1.419,0.556,1.027,0.952,���k��,3.6,��
2017/01/18,09:20,1.080,1.807,1.176,2.048,1.419,0.559,1.029,0.952,��,4.4,��
2017/01/18,09:30,1.080,1.809,1.175,2.049,1.421,0.558,1.026,0.955,���k��,4.3,��
2017/01/18,09:40,1.083,1.810,1.177,2.052,1.419,0.559,1.026,0.955,�k��,4.1,��
2017/01/18,09:50,1.082,1.809,1.174,2.050,1.422,0.558,1.025,0.954,���k��,4.0,��
2017/01/18,10:00,1.085,1.801,1.175,2.049,1.419,0.559,1.025,0.953,�k��,3.3,��
2017/01/18,10:10,1.082,1.796,1.176,2.047,1.418,0.558,1.025,0.951,�k�k��,4.2,��
2017/01/18,10:20,1.084,1.804,1.169,2.048,1.424,0.561,1.024,0.953,�k�k��,3.5,��
2017/01/18,10:30,1.084,1.800,1.173,2.051,1.420,0.559,1.026,0.952,�k�k��,4.4,��
2017/01/18,10:40,1.083,1.800,1.168,2.049,1.421,0.554,1.026,0.953,�k,3.5,��
2017/01/18,10:50,1.085,1.798,1.164,2.050,1.423,0.560,1.024,0.953,�k,2.2,��
2017/01/18,11:00,1.084,1.798,1.167,2.051,1.421,0.558,1.024,0.952,���k��,1.2,��
2017/01/18,11:10,1.084,1.797,1.170,2.053,1.407,0.559,1.026,0.954,-,CALM,��
2017/01/18,11:20,1.087,1.795,1.171,2.050,1.416,0.560,1.025,0.953,��쓌,1.2,��
2017/01/18,11:30,1.087,1.800,1.173,2.047,1.426,0.560,1.024,0.954,�쐼,1.2,��
2017/01/18,11:40,1.087,1.800,1.172,2.040,1.425,0.560,1.025,0.954,-,CALM,��
2017/01/18,11:50,1.090,1.801,1.172,2.045,1.424,0.559,1.031,0.954,���쐼,1.7,��
2017/01/18,12:00,1.086,1.805,1.174,2.051,1.423,0.560,1.030,0.955,���k��,3.0,��
2017/01/18,12:10,1.088,1.815,1.177,2.052,1.424,0.561,1.027,0.957,�k��,0.6,��
2017/01/18,12:20,1.088,1.811,1.172,2.055,1.427,0.560,1.028,0.953,�쓌,0.9,��
2017/01/18,12:30,1.088,1.814,1.176,2.051,1.423,0.562,1.030,0.956,���k��,2.0,��
2017/01/18,12:40,1.090,1.811,1.178,2.052,1.426,0.561,1.030,0.956,���k��,3.0,��
2017/01/18,12:50,1.091,1.815,1.177,2.053,1.425,0.562,1.027,0.955,�k��,1.5,��
2017/01/18,13:00,1.091,1.811,1.181,2.053,1.424,0.562,1.028,0.954,��,2.2,��
2017/01/18,13:10,1.091,1.810,1.181,2.054,1.424,0.560,1.029,0.955,���쐼,0.6,��
2017/01/18,13:20,1.091,1.814,1.180,2.055,1.426,0.561,1.028,0.955,���쐼,2.0,��
2017/01/18,13:30,1.091,1.813,1.182,2.053,1.426,0.559,1.029,0.953,���쐼,3.1,��
2017/01/18,13:40,1.093,1.812,1.183,2.055,1.425,0.560,1.030,0.956,��,5.9,��
2017/01/18,13:50,1.092,1.812,1.181,2.053,1.422,0.562,1.032,0.958,��,5.5,��
2017/01/18,14:00,1.093,1.810,1.182,2.052,1.426,0.560,1.030,0.951,���k��,5.6,��
2017/01/18,14:10,1.091,1.802,1.182,2.055,1.427,0.560,1.031,0.952,��,4.1,��
2017/01/18,14:20,1.092,1.807,1.183,2.053,1.426,0.560,1.031,0.952,���쐼,3.5,��
2017/01/18,14:30,1.092,1.807,1.183,2.057,1.425,0.561,1.030,0.954,��,4.2,��
2017/01/18,14:40,1.093,1.812,1.185,2.051,1.425,0.564,1.030,0.954,��,3.8,��
2017/01/18,14:50,1.094,1.812,1.183,2.054,1.424,0.558,1.032,0.956,��,3.8,��
2017/01/18,15:00,1.093,1.814,1.183,2.055,1.428,0.561,1.029,0.955,��,3.3,��
2017/01/18,15:10,1.093,1.812,1.183,2.054,1.428,0.563,1.030,0.954,��,2.3,��
2017/01/18,15:20,1.090,1.819,1.185,2.055,1.430,0.561,1.032,0.955,��,1.1,��
2017/01/18,15:30,1.091,1.820,1.184,2.054,1.424,0.561,1.029,0.953,���쐼,1.1,��
2017/01/18,15:40,1.092,1.820,1.186,2.054,1.429,0.561,1.030,0.954,-,CALM,��
2017/01/18,15:50,1.091,1.820,1.185,2.054,1.429,0.562,1.030,0.957,��쓌,1.2,��
2017/01/18,16:00,1.093,1.818,1.184,2.054,1.429,0.562,1.031,0.954,��,1.2,��
2017/01/18,16:10,1.092,1.818,1.186,2.055,1.432,0.563,1.031,0.954,��쓌,1.2,��
2017/01/18,16:20,1.093,1.818,1.185,2.051,1.431,0.561,1.031,0.954,��쓌,2.3,��
2017/01/18,16:30,1.091,1.816,1.185,2.055,1.429,0.561,1.031,0.953,��쓌,2.9,��
2017/01/18,16:40,1.094,1.818,1.185,2.055,1.429,0.561,1.028,0.955,��쓌,4.7,��
2017/01/18,16:50,1.091,1.817,1.186,2.054,1.429,0.562,1.031,0.954,��쓌,6.8,��
2017/01/18,17:00,1.090,1.817,1.184,2.052,1.430,0.561,1.029,0.956,��쓌,6.5,��
2017/01/18,17:10,1.092,1.819,1.185,2.052,1.430,0.561,1.031,0.955,��,6.0,��
2017/01/18,17:20,1.091,1.816,1.184,2.054,1.426,0.561,1.029,0.954,��쓌,4.6,��
2017/01/18,17:30,1.090,1.817,1.183,2.051,1.428,0.561,1.031,0.954,��쓌,5.2,��
2017/01/18,17:40,1.091,1.817,1.182,2.051,1.428,0.560,1.028,0.953,��,5.8,��
2017/01/18,17:50,1.089,1.815,1.183,2.050,1.427,0.561,1.027,0.956,��,6.6,��
2017/01/18,18:00,1.088,1.817,1.183,2.055,1.429,0.560,1.029,0.955,��쐼,6.2,��
2017/01/18,18:10,1.088,1.817,1.183,2.050,1.430,0.561,1.027,0.956,��,6.8,��
2017/01/18,18:20,1.092,1.817,1.182,2.051,1.428,0.561,1.028,0.954,��,7.0,��
2017/01/18,18:30,1.089,1.818,1.181,2.052,1.428,0.560,1.027,0.954,��,7.2,��
2017/01/18,18:40,1.089,1.812,1.182,2.054,1.428,0.559,1.028,0.955,��,7.1,��
2017/01/18,18:50,1.091,1.817,1.182,2.054,1.428,0.561,1.029,0.953,��,8.4,��
2017/01/18,19:00,1.091,1.819,1.182,2.053,1.427,0.559,1.028,0.955,��,9.1,��
2017/01/18,19:10,1.092,1.815,1.181,2.053,1.429,0.561,1.026,0.952,��쐼,9.2,��
2017/01/18,19:20,1.092,1.815,1.182,2.054,1.430,0.559,1.028,0.954,��쐼,9.1,��
2017/01/18,19:30,1.092,1.816,1.184,2.054,1.426,0.560,1.027,0.954,��,8.6,��
2017/01/18,19:40,1.090,1.817,1.183,2.052,1.429,0.561,1.028,0.953,��,8.8,��
2017/01/18,19:50,1.089,1.817,1.183,2.052,1.430,0.560,1.029,0.955,��쐼,7.5,��
2017/01/18,20:00,1.089,1.818,1.185,2.052,1.427,0.560,1.029,0.954,��쐼,7.7,��
2017/01/18,20:10,1.092,1.816,1.182,2.052,1.427,0.560,1.027,0.955,��쐼,8.6,��
2017/01/18,20:20,1.090,1.812,1.181,2.055,1.429,0.561,1.027,0.954,��쐼,8.2,��
2017/01/18,20:30,1.090,1.818,1.183,2.051,1.428,0.560,1.027,0.954,��쐼,7.3,��
2017/01/18,20:40,1.088,1.818,1.182,2.047,1.426,0.559,1.028,0.954,��,8.5,��
2017/01/18,20:50,1.088,1.817,1.183,2.052,1.424,0.558,1.030,0.955,��,9.2,��
2017/01/18,21:00,1.090,1.816,1.182,2.053,1.425,0.560,1.028,0.957,��,9.6,��
2017/01/18,21:10,1.091,1.816,1.183,2.053,1.428,0.560,1.029,0.953,��쐼,8.9,��
2017/01/18,21:20,1.092,1.814,1.184,2.051,1.429,0.561,1.031,0.955,��,9.5,��
2017/01/18,21:30,1.091,1.818,1.183,2.055,1.427,0.561,1.032,0.954,��,10.5,��
2017/01/18,21:40,1.091,1.815,1.184,2.055,1.429,0.560,1.029,0.954,��,11.4,��
2017/01/18,21:50,1.090,1.817,1.183,2.055,1.429,0.561,1.029,0.954,��,10.7,��
2017/01/18,22:00,1.090,1.816,1.185,2.056,1.428,0.562,1.028,0.954,��,11.1,��
2017/01/18,22:10,1.089,1.815,1.184,2.054,1.431,0.561,1.032,0.956,��,10.6,��
2017/01/18,22:20,1.090,1.816,1.183,2.052,1.431,0.563,1.032,0.954,��,10.8,��
2017/01/18,22:30,1.091,1.817,1.187,2.053,1.427,0.562,1.031,0.955,��,9.2,��
2017/01/18,22:40,1.092,1.818,1.185,2.056,1.430,0.561,1.029,0.955,��,9.7,��
2017/01/18,22:50,1.090,1.816,1.185,2.054,1.429,0.561,1.032,0.955,��,7.5,��
2017/01/18,23:00,1.092,1.818,1.185,2.052,1.429,0.561,1.030,0.953,��,6.0,��
2017/01/18,23:10,1.093,1.818,1.183,2.054,1.426,0.562,1.029,0.957,��,3.2,��
2017/01/18,23:20,1.093,1.818,1.185,2.054,1.428,0.562,1.030,0.955,��쓌,3.2,��
2017/01/18,23:30,1.093,1.817,1.182,2.052,1.430,0.561,1.030,0.954,��쓌,4.1,��
2017/01/18,23:40,1.094,1.817,1.182,2.055,1.429,0.562,1.031,0.953,��쓌,5.5,��
2017/01/18,23:50,1.092,1.816,1.184,2.053,1.428,0.562,1.030,0.955,��쓌,5.6,��
